User: anonymous   Login
Location: Unspecified
(0.0000°N, 0.0000°E)
Time: 11:51:52
(UTC+00:00)
Language:

FLTSATCOM F8 - Orbit

View from above orbital plane
View from above orbital plane
View from above satellite
View from above satellite

Ground track
Ground track

The orbit data is extracted from the following two-line orbital elements,

1 20253U 89077A   18260.08421235 0.00000000  00000-0  00000-0 0    08
2 20253  13.0383  10.8657 0002086 213.9057 146.0399  1.00270000    04
Epoch (UTC): 17 September 2018 02:01:15
Eccentricity: 0.0002086
inclination: 13.0383°
perigee height: 35778 km
apogee height: 35795 km
right ascension of ascending node: 10.8657°
argument of perigee: 213.9057°
revolutions per day: 1.00270000
mean anomaly at epoch: 146.0399°
orbit number at epoch: 0

The dashed part of the orbit path shows where the satellite is in the earth's shadow,  

DLR